Simultaneous Nadir Overpasses (SNOs) Predictions

Prediction of SNOs between AQUA and GOES-15 Satellite Orbit:

Table of predicted SNOs for the next 14.0 days since TLE Epoch: 4/29/2016
Index Date Time (AQUA) AQUA Lat,Lon GOES-15 Lat,Lon Distance(km) Time Diff (sec)
1 04/30/2016 22:23:39 0.63,-132.08 -0.06,-135.31 367.71 80
2 05/01/2016 10:44:54 0.47,-137.23 0.06,-135.30 219.52 80
3 05/03/2016 10:32:40 -0.15,-134.26 0.06,-135.26 113.70 80
4 05/03/2016 22:54:02 -0.97,-139.45 -0.06,-135.25 477.88 80
5 05/05/2016 10:20:26 -0.78,-131.30 0.06,-135.22 446.28 80
6 05/05/2016 22:41:48 -0.34,-136.49 -0.06,-135.21 145.38 80
7 05/07/2016 22:29:35 0.30,-133.52 -0.05,-135.16 186.43 80
8 05/08/2016 10:50:49 0.80,-138.68 0.05,-135.15 400.78 80
9 05/10/2016 10:38:35 0.15,-135.72 0.05,-135.10 69.70 80
10 05/12/2016 10:26:20 -0.44,-132.74 0.05,-135.04 261.30 80
11 05/12/2016 22:47:43 -0.66,-137.93 -0.05,-135.01 331.39 80




NCC Satellite Simultaneous Nadir Overpasses (SNOs) Prediction Service
